Location: Archemont
(49.1579°N, 1.7598°E)
Time: 14:38:06
(UTC+00:00)

Transit 2A - Pass Details

Date: 13 April 2024
Orbit: 594 x 958 km, 66.7° (Epoch: 27 May)

Event Time Altitude Azimuth Distance (km) Brightness Sun altitude
Rises 15:51:32 0° 325° (NW) 3,170 9.4 26.8°
Reaches altitude 10° 15:53:50 10° 329° (NNW) 2,299 8.7 26.4°
Maximum altitude 15:59:06 64° 51° (NE) 908 6.5 25.6°
Drops below altitude 10° 16:04:54 10° 132° (SE) 2,529 8.5 24.7°
Sets 16:07:32 0° 136° (SE) 3,512 9.1 24.3°
